Regional Weather Roundup
Issued by NWS

Home | Current Version | Previous Version | Text Only | Print | Product List | Glossary Off
Versions: 1 2 3 4 5 6 7 8 9 10 11 12 13 14 15 16 17 18 19 20 21 22 23 24 25 26 27 28 29 30 31 32 33 34 35 36 37 38 39 40 41 42 43 44 45 46 47 48 49 50

000
ASUS43 KLMK 190502
RWRKY
KENTUCKY REGIONAL WEATHER ROUNDUP
NATIONAL WEATHER SERVICE LOUISVILLE KY
100 AM EDT FRI SEP 19 2014

NOTE "FAIR" INDICATES FEW OR NO CLOUDS BELOW 12,000 FEET
WITH NO SIGNIFICANT WEATHER AND/OR OBSTRUCTIONS TO VISIBILITY.

KYZ001>023-026-027-061>063-070>075-190600-
WESTERN AND SOUTH CENTRAL KENTUCKY

CITY           SKY/WX    TMP DP  RH WIND       PRES   REMARKS
PADUCAH        CLEAR     63  56  78 CALM      30.05R
HENDERSON      CLEAR     55  50  82 NE3       30.08S
OWENSBORO      CLEAR     62  55  77 NE7       30.08S
HOPKINSVILLE   CLEAR     59  57  92 NE6       30.05R
BOWLING GREEN  CLEAR     59  54  83 NE6       30.06S
GLASGOW        NOT AVBL
$$

KYZ024-025-028>034-038-045-046-053-190600-
NORTH CENTRAL KENTUCKY

CITY           SKY/WX    TMP DP  RH WIND       PRES   REMARKS
LOUISVILLE/SDF CLEAR     63  50  62 NE6       30.10R
LOUISVILLE/LOU CLEAR     62  50  64 NE3       30.11R
FORT KNOX      CLEAR     58  51  77 NE5       30.09R
$$

KYZ035>037-039>044-047>052-055>060-089>105-190600-
NORTHEAST KENTUCKY

CITY           SKY/WX    TMP DP  RH WIND       PRES   REMARKS
LEXINGTON      CLEAR     62  49  62 E10       30.12R
COVINGTON      CLEAR     58  46  64 E6        30.13S
FRANKFORT      CLEAR     55  51  86 CALM      30.11R
$$

KYZ054-064>069-076>088-106>120-190600-
SOUTHEAST KENTUCKY

CITY           SKY/WX    TMP DP  RH WIND       PRES   REMARKS
JACKSON        CLEAR     59  51  75 CALM      30.11S
LONDON         CLEAR     62  52  69 NE5       30.10S
SOMERSET       NOT AVBL
MIDDLESBORO    CLEAR     56  55  98 CALM      30.10S
MONTICELLO     CLEAR     55  54  97 CALM      30.11R
$$




USA.gov is the U.S. government's official web portal to all federal, state and local government web resources and services.